Middletown, OH

10:14 AM EDT on September 28, 2016 (GMT -0400)
Hook Field Municipal

Weather History for KMWO - July, 2013

Change the Weather History Date:

Tuesday, July 30, 2013

  Actual Average (KDAY) Record (KDAY)
Temperature  
Mean Temperature 66 °F 74 °F  
Max Temperature 77 °F 83 °F 99 °F (1913)
Min Temperature 55 °F 64 °F 50 °F (1981)
Degree Days  
Heating Degree Days 0 0  
Month to date heating degree days 0  
Since 1 June heating degree days 22  
Since 1 July heating degree days 0  
Cooling Degree Days 1 9  
Month to date cooling degree days 270  
Year to date cooling degree days 530  
Since 1 June cooling degree days 460  
Growing Degree Days 16 (Base 50)    
Moisture  
Dew Point 62 °F    
Average Humidity 88    
Maximum Humidity 100    
Minimum Humidity 59    
Precipitation  
Precipitation 0.00 in 0.11 in 1.38 in (1996)
Month to date precipitation 4.00  
Year to date precipitation 25.21  
Snow  
Snow 0.00 in 0.00 in 0.00 in ()
Month to date snowfall 0.0  
Since 1 June snowfall 0.0  
Since 1 July snowfall 0.0  
Snow Depth -    
Sea Level Pressure  
Sea Level Pressure 30.21 in    
Wind  
Wind Speed 0 mph (NW)    
Max Wind Speed 6 mph    
Max Gust Speed -    
Visibility 10 miles    
Events      
T = Trace of Precipitation, MM = Missing Value Source: NWS Daily Summary

Daily Weather History Graph

Daily Weather History Graph

Search for Another Location

Airport or City:

Trip Planner

Search our weather history database for the weather conditions in past years. The results will help you decide how hot, cold, wet, or windy it might be!

Date:

Astronomy

Jul. 30, 2013 Rise Set
Actual Time 6:35 AM EDT 8:51 PM EDT
Civil Twilight 6:05 AM EDT 9:22 PM EDT
Nautical Twilight 5:28 AM EDT 9:59 PM EDT
Astronomical Twilight 4:47 AM EDT 10:39 PM EDT
Moon 12:52 AM EDT (7/30) 3:11 PM EDT (7/30)
Length of Visible Light 15h 16m
Length of Day
14h 16m
Last Quarter, 41% of the Moon is Illuminated
Jul 30
Last Quarter
Aug 6
New
Aug 14
First Quarter
Aug 20
Full
Aug 28
Last Quarter

Hourly Weather History & Observations

Time (EDT) Temp. Dew Point Humidity Pressure Visibility Wind Dir Wind Speed Gust Speed Precip Events Conditions
12:15 AM 57.7 °F 57.7 °F 100% 30.21 in 10.0 mi Calm Calm - N/A   Clear
12:35 AM 57.7 °F 57.7 °F 100% 30.22 in 10.0 mi Calm Calm - N/A   Clear
12:55 AM 57.7 °F 57.7 °F 100% 30.23 in 10.0 mi Calm Calm - N/A   Clear
1:15 AM 57.7 °F 57.7 °F 100% 30.22 in 10.0 mi Calm Calm - N/A   Clear
1:35 AM 57.7 °F 57.7 °F 100% 30.23 in 10.0 mi Calm Calm - N/A   Clear
1:55 AM 57.7 °F 57.7 °F 100% 30.23 in 10.0 mi Calm Calm - N/A   Clear
2:15 AM 57.7 °F 57.7 °F 100% 30.23 in 10.0 mi Calm Calm - N/A   Clear
2:35 AM 57.7 °F 57.7 °F 100% 30.22 in 10.0 mi Calm Calm - N/A   Clear
2:55 AM 57.6 °F 57.6 °F 100% 30.22 in 10.0 mi Calm Calm - N/A   Clear
3:15 AM 56.3 °F 56.3 °F 100% 30.22 in 10.0 mi Calm Calm - N/A   Clear
3:35 AM 55.8 °F 55.8 °F 100% 30.22 in 10.0 mi Calm Calm - N/A   Clear
3:55 AM 55.4 °F 55.4 °F 100% 30.22 in 10.0 mi Calm Calm - N/A   Clear
4:15 AM 55.4 °F 55.4 °F 100% 30.22 in 10.0 mi Calm Calm - N/A   Clear
4:35 AM 55.4 °F 55.4 °F 100% 30.22 in 10.0 mi Calm Calm - N/A   Clear
4:55 AM 55.4 °F 55.4 °F 100% 30.22 in 10.0 mi Calm Calm - N/A   Clear
5:15 AM 55.4 °F 55.4 °F 100% 30.23 in 10.0 mi Calm Calm - N/A   Clear
5:35 AM 55.4 °F 55.4 °F 100% 30.23 in 10.0 mi Calm Calm - N/A   Clear
5:55 AM 55.4 °F 55.4 °F 100% 30.23 in 10.0 mi Calm Calm - N/A   Clear
6:15 AM 55.4 °F 55.4 °F 100% 30.23 in 10.0 mi Calm Calm - N/A   Clear
6:35 AM 55.4 °F 55.4 °F 100% 30.24 in 10.0 mi Calm Calm - N/A   Clear
6:55 AM 55.4 °F 55.4 °F 100% 30.24 in 10.0 mi Calm Calm - N/A   Clear
7:15 AM 55.4 °F 55.4 °F 100% 30.24 in 10.0 mi Calm Calm - N/A   Clear
7:35 AM 55.4 °F 55.4 °F 100% 30.24 in 10.0 mi Calm Calm - N/A   Clear
7:55 AM 57.7 °F 57.7 °F 100% 30.25 in 10.0 mi Calm Calm - N/A   Clear
8:15 AM 58.8 °F 58.8 °F 100% 30.25 in 10.0 mi Calm Calm - N/A   Clear
8:35 AM 60.1 °F 60.1 °F 100% 30.26 in 10.0 mi Calm Calm - N/A   Clear
8:55 AM 62.6 °F 61.7 °F 97% 30.25 in 10.0 mi Calm Calm - N/A   Clear
9:15 AM 65.7 °F 63.9 °F 94% 30.25 in 10.0 mi Calm Calm - N/A   Clear
9:35 AM 67.6 °F 65.1 °F 92% 30.25 in 10.0 mi Calm Calm - N/A   Clear
9:55 AM 67.6 °F 64.2 °F 89% 30.24 in 10.0 mi Calm Calm - N/A   Clear
10:15 AM 72.1 °F 67.1 °F 84% 30.24 in 10.0 mi Calm Calm - N/A   Clear
10:35 AM 72.7 °F 64.9 °F 77% 30.24 in 10.0 mi Calm Calm - N/A   Clear
10:55 AM 72.7 °F 63.7 °F 73% 30.23 in 10.0 mi Calm Calm - N/A   Clear
11:15 AM 75.2 °F 64.4 °F 69% 30.23 in 10.0 mi Calm Calm - N/A   Clear
11:35 AM 75.2 °F 63.9 °F 68% 30.23 in 10.0 mi Calm Calm - N/A   Clear
11:55 AM 75.2 °F 62.4 °F 64% 30.23 in 10.0 mi WSW 5.8 mph - N/A   Clear
12:15 PM 75.7 °F 60.3 °F 59% 30.23 in 10.0 mi NW 4.6 mph - N/A   Clear
12:55 PM 75.6 °F 62.2 °F 63% 30.22 in 10.0 mi SW 3.5 mph - N/A   Clear
1:15 PM 75.9 °F 63.0 °F 64% 30.22 in 10.0 mi SW 3.5 mph - N/A   Scattered Clouds
1:35 PM 77.7 °F 64.4 °F 63% 30.21 in 10.0 mi West 3.5 mph - N/A   Scattered Clouds
2:15 PM 75.6 °F 63.1 °F 65% 30.21 in 10.0 mi WNW 3.5 mph - N/A   Clear
2:35 PM 77.9 °F 64.8 °F 64% 30.21 in 7.0 mi Calm Calm - N/A   Scattered Clouds
2:55 PM 75.9 °F 63.3 °F 65% 30.20 in 10.0 mi Calm Calm - N/A   Scattered Clouds
3:15 PM 75.7 °F 64.0 °F 67% 30.20 in 10.0 mi Calm Calm - N/A   Scattered Clouds
3:35 PM 75.2 °F 62.8 °F 65% 30.20 in 10.0 mi WNW 3.5 mph - N/A   Mostly Cloudy
3:55 PM 75.2 °F 64.0 °F 68% 30.20 in 10.0 mi WNW 3.5 mph - N/A   Scattered Clouds
4:15 PM 75.2 °F 65.8 °F 73% 30.19 in 10.0 mi WNW 3.5 mph - N/A   Mostly Cloudy
4:35 PM 75.2 °F 66.4 °F 74% 30.19 in 10.0 mi Calm Calm - N/A   Mostly Cloudy
4:55 PM 75.2 °F 66.4 °F 74% 30.18 in 10.0 mi ENE 3.5 mph - N/A   Mostly Cloudy
5:15 PM 75.2 °F 65.5 °F 72% 30.18 in 10.0 mi Calm Calm - N/A   Scattered Clouds
5:35 PM 75.2 °F 65.3 °F 71% 30.17 in 10.0 mi NE 3.5 mph - N/A   Clear
5:55 PM 75.2 °F 66.7 °F 75% 30.18 in 10.0 mi Calm Calm - N/A   Clear
6:15 PM 75.2 °F 66.9 °F 75% 30.17 in 10.0 mi Calm Calm - N/A   Clear
6:35 PM 73.9 °F 68.4 °F 83% 30.17 in 10.0 mi Calm Calm - N/A   Clear
6:55 PM 72.7 °F 67.5 °F 84% 30.16 in 10.0 mi Calm Calm - N/A   Clear
7:15 PM 72.7 °F 68.0 °F 85% 30.16 in 10.0 mi Calm Calm - N/A   Clear
7:35 PM 72.7 °F 70.3 °F 92% 30.16 in 10.0 mi Calm Calm - N/A   Scattered Clouds
7:55 PM 72.7 °F 70.2 °F 92% 30.16 in 10.0 mi Calm Calm - N/A   Mostly Cloudy
8:15 PM 72.7 °F 71.2 °F 95% 30.16 in 10.0 mi Calm Calm - N/A   Scattered Clouds
8:35 PM 72.7 °F 72.0 °F 98% 30.15 in 10.0 mi Calm Calm - N/A   Clear
8:55 PM 69.6 °F 69.4 °F 99% 30.15 in 10.0 mi NNE 3.5 mph - N/A   Clear
9:15 PM 67.6 °F 67.6 °F 100% 30.15 in 10.0 mi Calm Calm - N/A   Clear
9:35 PM 67.8 °F 67.6 °F 99% 30.15 in 10.0 mi Calm Calm - N/A   Scattered Clouds
9:55 PM 67.6 °F 67.6 °F 100% 30.15 in 10.0 mi Calm Calm - N/A   Scattered Clouds
10:15 PM 67.6 °F 67.6 °F 100% 30.15 in 10.0 mi Calm Calm - N/A   Mostly Cloudy
10:35 PM 67.6 °F 67.6 °F 100% 30.15 in 10.0 mi North 5.8 mph - N/A   Mostly Cloudy
10:55 PM 67.6 °F 67.6 °F 100% 30.16 in 10.0 mi North 3.5 mph - N/A   Scattered Clouds
11:15 PM 67.6 °F 67.6 °F 100% 30.15 in 10.0 mi Calm Calm - N/A   Clear
11:35 PM 67.6 °F 67.6 °F 100% 30.15 in 10.0 mi Calm Calm - N/A   Clear
11:55 PM 67.6 °F 67.6 °F 100% 30.15 in 10.0 mi Calm Calm - N/A   Clear